Location: Unspecified
(0.0000°N, 0.0000°E)
Time: 10:02:44
(UTC+00:00)

SR - All Passes

Search period start: 29 April 2016 00:00
Search period end: 09 May 2016 00:00
Orbit: 579 x 879 km, 66.7° (Epoch: 28 April)

Date Brightness Start Highest point End Pass type
(mag) Time Alt. Az. Time Alt. Az. Time Alt. Az.
29 Apr - 07:56:41 10° N 08:00:25 31° ENE 08:04:11 10° SE daylight
29 Apr - 20:20:53 10° SSW 20:26:49 86° WNW 20:32:41 10° NNE visible
30 Apr - 07:10:34 10° ENE 07:11:14 10° ENE 07:11:54 10° ENE daylight
30 Apr - 08:49:24 10° NW 08:53:00 27° WSW 08:56:36 10° S daylight
30 Apr - 19:32:07 10° S 19:37:37 41° ESE 19:43:05 10° NE visible
30 Apr - 21:15:56 10° WSW 21:19:30 16° WNW 21:23:03 10° NNW visible
01 May - 07:59:36 10° NNW 08:03:49 87° WSW 08:08:05 10° SSE daylight
01 May - 18:44:35 10° SSE 18:48:22 18° ESE 18:52:10 10° ENE visible
01 May - 20:24:51 10° SW 20:30:17 38° WNW 20:35:40 10° N visible
02 May - 07:11:00 10° N 07:14:39 29° ENE 07:18:20 10° SE daylight
02 May - 19:35:10 10° SSW 19:41:05 89° W 19:46:57 10° NNE visible
03 May - 08:03:34 10° NW 08:07:13 29° WSW 08:10:56 10° S daylight
03 May - 18:46:25 10° S 18:51:53 39° ESE 18:57:17 10° NE visible
03 May - 20:30:01 10° WSW 20:33:46 17° WNW 20:37:29 10° NNW visible
04 May - 07:13:50 10° NNW 07:18:03 87° ENE 07:22:18 10° SSE daylight
04 May - 17:59:00 10° SSE 18:02:38 17° ESE 18:06:15 10° ENE daylight
04 May - 19:39:04 10° SW 19:44:33 40° WNW 19:49:59 10° N visible
05 May - 06:25:18 10° NNE 06:28:53 27° ENE 06:32:30 10° SE daylight
05 May - 08:09:59 10° WSW 08:10:40 10° WSW 08:11:22 10° WSW daylight
05 May - 18:49:25 10° SSW 18:55:22 87° ESE 19:01:13 10° NNE visible
06 May - 07:17:43 10° NW 07:21:27 31° WSW 07:25:14 10° S daylight
06 May - 18:00:45 10° S 18:06:09 37° ESE 18:11:29 10° NE daylight
06 May - 19:44:08 10° WSW 19:48:01 18° WNW 19:51:52 10° NNW visible
07 May - 06:28:04 10° NNW 06:32:16 82° ENE 06:36:32 10° SSE daylight
07 May - 17:13:26 10° SSE 17:16:54 16° ESE 17:20:19 10° ENE daylight
07 May - 18:53:16 10° SW 18:58:50 42° WNW 19:04:17 10° N visible
08 May - 05:39:36 10° NNE 05:43:07 25° ENE 05:46:38 10° SE daylight
08 May - 07:23:37 10° W 07:24:54 11° WSW 07:26:10 10° SW daylight
08 May - 18:03:42 10° SSW 18:09:37 83° ESE 18:15:28 10° NNE daylight
